START_TIME,STEP,MOV.,P11,t_acc.,P23,t_acc.,P27,t_acc.,A4,t_acc.
1979-08-02 09:00:21.930 ,0,0,2.,4.8,0.,4.8,0.,4.8,0.,4.8
1979-08-02 09:00:26.730 ,0,0,3.,4.8,0.,4.8,1.,4.8,0.,4.8
1979-08-02 09:00:31.530 ,0,0,3.,4.8,0.,4.8,0.,4.8,0.,4.8
1979-08-02 09:00:36.330 ,0,0,2.,4.8,0.,4.8,1.,4.8,0.,4.8
1979-08-02 09:00:41.130 ,0,0,,0,,0,,0,,0
1979-08-02 09:00:45.920 ,0,0,3.,4.8,0.,4.8,1.,4.8,0.,4.8
1979-08-02 09:00:50.730 ,0,0,0.,4.8,0.,4.8,0.,4.8,0.,4.8
1979-08-02 09:00:55.530 ,0,0,0.,4.8,0.,4.8,0.,4.8,0.,4.8
1979-08-02 09:01:00.330 ,0,0,0.,4.8,0.,4.8,0.,4.8,1.,4.8
1979-08-02 09:01:05.130 ,0,0,0.,4.8,0.,4.8,0.,4.8,0.,4.8
1979-08-02 09:01:09.920 ,0,0,1.,4.8,0.,4.8,0.,4.8,0.,4.8
1979-08-02 09:01:14.720 ,0,0,1.,4.8,0.,4.8,0.,4.8,0.,4.8
1979-08-02 09:01:19.530 ,0,0,1.,4.8,0.,4.8,0.,4.8,0.,4.8
1979-08-02 09:01:24.330 ,0,0,1.,4.8,0.,4.8,0.,4.8,0.,4.8
1979-08-02 09:01:29.130 ,0,0,1.,4.8,0.,4.8,0.,4.8,0.,4.8
1979-08-02 09:01:33.920 ,1,0,0.,4.8,0.,4.8,0.,4.8,0.,4.8
1979-08-02 09:01:38.720 ,1,0,2.,4.8,0.,4.8,1.,4.8,0.,4.8
1979-08-02 09:01:43.530 ,1,0,1.,4.8,0.,4.8,1.,4.8,0.,4.8
1979-08-02 09:01:48.330 ,1,0,0.,4.8,0.,4.8,0.,4.8,0.,4.8
1979-08-02 09:01:53.130 ,1,0,0.,4.8,0.,4.8,1.,4.8,0.,4.8
1979-08-02 09:01:57.920 ,1,0,1.,4.8,0.,4.8,0.,4.8,0.,4.8
1979-08-02 09:02:02.720 ,1,0,1.,4.8,0.,4.8,0.,4.8,0.,4.8
1979-08-02 09:02:07.530 ,1,0,2.,4.8,0.,4.8,0.,4.8,0.,4.8
1979-08-02 09:02:12.320 ,1,0,1.,4.8,0.,4.8,0.,4.8,0.,4.8
1979-08-02 09:02:17.130 ,1,0,0.,4.8,0.,4.8,0.,4.8,0.,4.8
1979-08-02 09:02:21.930 ,2,0,1.,4.8,0.,4.8,0.,4.8,0.,4.8
1979-08-02 09:02:26.730 ,2,0,2.,4.8,0.,4.8,0.,4.8,0.,4.8
1979-08-02 09:02:31.530 ,2,0,0.,4.8,0.,4.8,0.,4.8,0.,4.8
1979-08-02 09:02:36.330 ,2,0,1.,4.8,0.,4.8,0.,4.8,0.,4.8
1979-08-02 09:02:41.130 ,2,0,1.,4.8,0.,4.8,0.,4.8,0.,4.8
1979-08-02 09:02:45.920 ,2,0,0.,4.8,1.,4.8,0.,4.8,0.,4.8
1979-08-02 09:02:50.720 ,2,0,1.,4.8,0.,4.8,0.,4.8,0.,4.8
1979-08-02 09:02:55.520 ,2,0,1.,4.8,0.,4.8,0.,4.8,0.,4.8
1979-08-02 09:03:00.320 ,2,0,1.,4.8,0.,4.8,2.,4.8,0.,4.8
1979-08-02 09:03:05.130 ,2,0,1.,4.8,0.,4.8,0.,4.8,0.,4.8
1979-08-02 09:03:09.930 ,3,0,1.,4.8,0.,4.8,0.,4.8,0.,4.8
1979-08-02 09:03:14.730 ,3,0,0.,4.8,0.,4.8,0.,4.8,0.,4.8
1979-08-02 09:03:19.530 ,3,0,1.,4.8,1.,4.8,0.,4.8,0.,4.8
1979-08-02 09:03:24.330 ,3,0,0.,4.8,0.,4.8,0.,4.8,0.,4.8
1979-08-02 09:03:29.130 ,3,0,1.,4.8,0.,4.8,0.,4.8,0.,4.8
1979-08-02 09:03:33.930 ,3,0,1.,4.8,0.,4.8,0.,4.8,0.,4.8
1979-08-02 09:03:38.720 ,3,0,1.,4.8,0.,4.8,0.,4.8,0.,4.8
1979-08-02 09:03:43.520 ,3,0,0.,4.8,0.,4.8,0.,4.8,0.,4.8
1979-08-02 09:03:48.320 ,3,0,1.,4.8,0.,4.8,0.,4.8,0.,4.8
1979-08-02 09:03:53.130 ,3,0,0.,4.8,0.,4.8,0.,4.8,0.,4.8
1979-08-02 09:03:57.920 ,4,0,1.,4.8,0.,4.8,0.,4.8,0.,4.8
1979-08-02 09:04:02.720 ,4,0,1.,4.8,0.,4.8,0.,4.8,0.,4.8
1979-08-02 09:04:07.520 ,4,0,0.,4.8,1.,4.8,0.,4.8,0.,4.8
1979-08-02 09:04:12.320 ,4,0,3.,4.8,0.,4.8,0.,4.8,0.,4.8
1979-08-02 09:04:17.130 ,4,0,0.,4.8,0.,4.8,0.,4.8,0.,4.8
1979-08-02 09:04:21.930 ,0,0,2.,4.8,0.,4.8,0.,4.8,0.,4.8
1979-08-02 09:04:26.730 ,0,0,1.,4.8,0.,4.8,0.,4.8,0.,4.8
1979-08-02 09:04:31.530 ,0,0,3.,4.8,0.,4.8,0.,4.8,0.,4.8
1979-08-02 09:04:36.330 ,0,0,1.,4.8,0.,4.8,0.,4.8,0.,4.8
1979-08-02 09:04:41.130 ,0,0,0.,4.8,0.,4.8,0.,4.8,0.,4.8
1979-08-02 09:04:45.930 ,5,0,1.,4.8,0.,4.8,0.,4.8,0.,4.8
1979-08-02 09:04:50.730 ,5,0,0.,4.8,0.,4.8,0.,4.8,0.,4.8
1979-08-02 09:04:55.530 ,5,0,0.,4.8,0.,4.8,0.,4.8,0.,4.8
1979-08-02 09:05:00.330 ,5,0,,0,,0,,0,,0
1979-08-02 09:05:05.130 ,5,0,0.,4.8,0.,4.8,0.,4.8,0.,4.8
1979-08-02 09:05:09.930 ,5,0,1.,4.8,0.,4.8,0.,4.8,0.,4.8
1979-08-02 09:05:14.730 ,5,0,0.,4.8,0.,4.8,0.,4.8,0.,4.8
1979-08-02 09:05:19.530 ,5,0,2.,4.8,0.,4.8,1.,4.8,0.,4.8
1979-08-02 09:05:24.330 ,5,0,0.,4.8,1.,4.8,0.,4.8,0.,4.8
1979-08-02 09:05:29.130 ,5,0,1.,4.8,0.,4.8,0.,4.8,0.,4.8
1979-08-02 09:05:33.930 ,6,0,0.,4.8,0.,4.8,1.,4.8,0.,4.8
1979-08-02 09:05:38.730 ,6,0,2.,4.8,0.,4.8,0.,4.8,0.,4.8
1979-08-02 09:05:43.530 ,6,0,0.,4.8,0.,4.8,0.,4.8,0.,4.8
1979-08-02 09:05:48.330 ,6,0,0.,4.8,0.,4.8,0.,4.8,0.,4.8
1979-08-02 09:05:53.130 ,6,0,1.,4.8,0.,4.8,0.,4.8,0.,4.8
1979-08-02 09:05:57.930 ,6,0,1.,4.8,0.,4.8,0.,4.8,0.,4.8
1979-08-02 09:06:02.730 ,6,0,3.,4.8,0.,4.8,0.,4.8,0.,4.8
1979-08-02 09:06:07.530 ,6,0,2.,4.8,0.,4.8,0.,4.8,0.,4.8
1979-08-02 09:06:12.330 ,6,0,0.,4.8,0.,4.8,0.,4.8,0.,4.8
1979-08-02 09:06:17.130 ,6,0,1.,4.8,0.,4.8,0.,4.8,0.,4.8
1979-08-02 09:06:21.930 ,7,0,0.,4.8,0.,4.8,0.,4.8,0.,4.8
1979-08-02 09:06:26.730 ,7,0,0.,4.8,0.,4.8,0.,4.8,0.,4.8
1979-08-02 09:06:31.530 ,7,0,,0,,0,,0,,0
1979-08-02 09:06:36.330 ,7,0,,0,,0,,0,,0
1979-08-02 09:06:41.130 ,7,0,2.,4.8,0.,4.8,0.,4.8,0.,4.8
1979-08-02 09:06:45.930 ,7,0,1.,4.8,0.,4.8,0.,4.8,0.,4.8
1979-08-02 09:06:50.730 ,7,0,1.,4.8,0.,4.8,0.,4.8,0.,4.8
1979-08-02 09:06:55.530 ,7,0,1.,4.8,0.,4.8,0.,4.8,0.,4.8
1979-08-02 09:07:00.330 ,7,0,1.,4.8,0.,4.8,0.,4.8,0.,4.8
1979-08-02 09:07:05.130 ,7,0,0.,4.8,0.,4.8,0.,4.8,0.,4.8
1979-08-02 09:07:09.930 ,3,1,0.,4.8,0.,4.8,0.,4.8,0.,4.8
1979-08-02 09:07:14.730 ,3,1,0.,4.8,0.,4.8,0.,4.8,0.,4.8
1979-08-02 09:07:19.530 ,3,1,0.,4.8,0.,4.8,1.,4.8,0.,4.8
1979-08-02 09:07:24.330 ,3,1,0.,4.8,0.,4.8,0.,4.8,0.,4.8
1979-08-02 09:07:29.130 ,3,1,1.,4.8,0.,4.8,0.,4.8,0.,4.8
1979-08-02 09:07:33.930 ,0,1,0.,4.8,0.,4.8,0.,4.8,0.,4.8
1979-08-02 09:07:38.730 ,0,1,0.,4.8,0.,4.8,0.,4.8,0.,4.8
1979-08-02 09:07:43.530 ,0,1,1.,4.8,0.,4.8,1.,4.8,0.,4.8
1979-08-02 09:07:48.330 ,0,1,0.,4.8,0.,4.8,0.,4.8,0.,4.8
1979-08-02 09:07:53.130 ,0,1,2.,4.8,0.,4.8,0.,4.8,0.,4.8
1979-08-02 09:07:57.930 ,4,1,0.,4.8,0.,4.8,0.,4.8,0.,4.8
1979-08-02 09:08:02.730 ,4,1,0.,4.8,0.,4.8,0.,4.8,0.,4.8
1979-08-02 09:08:07.530 ,4,1,2.,4.8,0.,4.8,0.,4.8,0.,4.8
1979-08-02 09:08:12.330 ,4,1,1.,4.8,0.,4.8,0.,4.8,0.,4.8
1979-08-02 09:08:17.130 ,4,1,0.,4.8,0.,4.8,0.,4.8,0.,4.8
1979-08-02 09:08:21.930 ,7,1,0.,4.8,0.,4.8,0.,4.8,0.,4.8
1979-08-02 09:08:26.730 ,7,1,3.,4.8,0.,4.8,0.,4.8,0.,4.8
1979-08-02 09:08:31.530 ,7,1,0.,4.8,0.,4.8,0.,4.8,0.,4.8
1979-08-02 09:08:36.330 ,7,1,0.,4.8,0.,4.8,1.,4.8,0.,4.8
1979-08-02 09:08:41.130 ,7,1,1.,4.8,0.,4.8,0.,4.8,0.,4.8
1979-08-02 09:08:45.920 ,3,1,0.,4.8,0.,4.8,0.,4.8,0.,4.8
1979-08-02 09:08:50.730 ,3,1,2.,4.8,0.,4.8,0.,4.8,0.,4.8
1979-08-02 09:08:55.530 ,3,1,,0,,0,,0,,0
1979-08-02 09:09:00.330 ,3,1,0.,4.8,0.,4.8,0.,4.8,0.,4.8
1979-08-02 09:09:05.130 ,3,1,1.,4.8,0.,4.8,0.,4.8,0.,4.8
1979-08-02 09:09:09.920 ,0,1,2.,4.8,1.,4.8,0.,4.8,0.,4.8
1979-08-02 09:09:14.730 ,0,1,1.,4.8,0.,4.8,0.,4.8,0.,4.8
1979-08-02 09:09:19.530 ,0,1,1.,4.8,0.,4.8,0.,4.8,0.,4.8
1979-08-02 09:09:24.330 ,0,1,0.,4.8,0.,4.8,0.,4.8,0.,4.8
1979-08-02 09:09:29.130 ,0,1,0.,4.8,0.,4.8,0.,4.8,0.,4.8
1979-08-02 09:09:33.920 ,4,1,1.,4.8,1.,4.8,0.,4.8,0.,4.8
1979-08-02 09:09:38.730 ,4,1,0.,4.8,1.,4.8,0.,4.8,0.,4.8
1979-08-02 09:09:43.530 ,4,1,3.,4.8,0.,4.8,0.,4.8,0.,4.8
1979-08-02 09:09:48.330 ,4,1,0.,4.8,0.,4.8,0.,4.8,0.,4.8
1979-08-02 09:09:53.130 ,4,1,1.,4.8,0.,4.8,1.,4.8,0.,4.8
1979-08-02 09:09:57.920 ,7,1,0.,4.8,0.,4.8,0.,4.8,0.,4.8
1979-08-02 09:10:02.730 ,7,1,1.,4.8,0.,4.8,0.,4.8,1.,4.8
1979-08-02 09:10:07.530 ,7,1,1.,4.8,0.,4.8,1.,4.8,0.,4.8
1979-08-02 09:10:12.330 ,7,1,2.,4.8,0.,4.8,0.,4.8,0.,4.8
1979-08-02 09:10:17.130 ,7,1,0.,4.8,0.,4.8,0.,4.8,0.,4.8
1979-08-02 09:10:21.920 ,3,1,0.,4.8,0.,4.8,0.,4.8,0.,4.8
1979-08-02 09:10:26.730 ,3,1,0.,4.8,0.,4.8,0.,4.8,0.,4.8
1979-08-02 09:10:31.530 ,3,1,0.,4.8,0.,4.8,0.,4.8,0.,4.8
1979-08-02 09:10:36.330 ,3,1,3.,4.8,0.,4.8,0.,4.8,0.,4.8
1979-08-02 09:10:41.130 ,3,1,0.,4.8,0.,4.8,0.,4.8,0.,4.8
1979-08-02 09:10:45.920 ,0,1,0.,4.8,0.,4.8,0.,4.8,0.,4.8
1979-08-02 09:10:50.730 ,0,1,4.,4.8,0.,4.8,0.,4.8,0.,4.8
1979-08-02 09:10:55.530 ,0,1,0.,4.8,0.,4.8,0.,4.8,0.,4.8
1979-08-02 09:11:00.330 ,0,1,2.,4.8,0.,4.8,0.,4.8,0.,4.8
1979-08-02 09:11:05.130 ,0,1,0.,4.8,0.,4.8,0.,4.8,0.,4.8
1979-08-02 09:11:09.920 ,4,1,3.,4.8,1.,4.8,0.,4.8,0.,4.8
1979-08-02 09:11:14.730 ,4,1,0.,4.8,0.,4.8,0.,4.8,0.,4.8
1979-08-02 09:11:19.530 ,4,1,0.,4.8,0.,4.8,0.,4.8,0.,4.8
1979-08-02 09:11:24.330 ,4,1,2.,4.8,0.,4.8,1.,4.8,0.,4.8
1979-08-02 09:11:29.130 ,4,1,2.,4.8,0.,4.8,0.,4.8,0.,4.8
1979-08-02 09:11:33.920 ,7,1,1.,4.8,0.,4.8,0.,4.8,0.,4.8
1979-08-02 09:11:38.730 ,7,1,3.,4.8,0.,4.8,0.,4.8,0.,4.8
1979-08-02 09:11:43.530 ,7,1,1.,4.8,0.,4.8,0.,4.8,0.,4.8
1979-08-02 09:11:48.330 ,7,1,0.,4.8,0.,4.8,1.,4.8,0.,4.8
1979-08-02 09:11:53.130 ,7,1,2.,4.8,0.,4.8,1.,4.8,0.,4.8
1979-08-02 09:11:57.920 ,3,1,0.,4.8,0.,4.8,0.,4.8,0.,4.8
1979-08-02 09:12:02.730 ,3,1,1.,4.8,0.,4.8,0.,4.8,0.,4.8
1979-08-02 09:12:07.530 ,3,1,0.,4.8,0.,4.8,0.,4.8,0.,4.8
1979-08-02 09:12:12.330 ,3,1,2.,4.8,0.,4.8,0.,4.8,0.,4.8
1979-08-02 09:12:17.130 ,3,1,1.,4.8,0.,4.8,0.,4.8,0.,4.8
1979-08-02 09:12:21.920 ,0,1,1.,4.8,1.,4.8,0.,4.8,0.,4.8
1979-08-02 09:12:26.730 ,0,1,0.,4.8,0.,4.8,0.,4.8,0.,4.8
1979-08-02 09:12:31.530 ,0,1,1.,4.8,0.,4.8,0.,4.8,0.,4.8
1979-08-02 09:12:36.330 ,0,1,0.,4.8,0.,4.8,0.,4.8,0.,4.8
1979-08-02 09:12:41.130 ,0,1,0.,4.8,0.,4.8,1.,4.8,0.,4.8
1979-08-02 09:12:45.920 ,4,1,2.,4.8,0.,4.8,0.,4.8,0.,4.8
1979-08-02 09:12:50.730 ,4,1,1.,4.8,0.,4.8,0.,4.8,0.,4.8
1979-08-02 09:12:55.530 ,4,1,1.,4.8,0.,4.8,0.,4.8,0.,4.8
1979-08-02 09:13:00.330 ,4,1,0.,4.8,0.,4.8,0.,4.8,0.,4.8
1979-08-02 09:13:05.130 ,4,1,2.,4.8,0.,4.8,1.,4.8,0.,4.8
1979-08-02 09:13:09.920 ,7,1,0.,4.8,0.,4.8,0.,4.8,0.,4.8
1979-08-02 09:13:14.730 ,7,1,0.,4.8,0.,4.8,0.,4.8,0.,4.8
1979-08-02 09:13:19.530 ,7,1,1.,4.8,0.,4.8,2.,4.8,0.,4.8
1979-08-02 09:13:24.330 ,7,1,0.,4.8,0.,4.8,1.,4.8,0.,4.8
1979-08-02 09:13:29.130 ,7,1,0.,4.8,0.,4.8,0.,4.8,0.,4.8
1979-08-02 09:13:33.920 ,3,1,0.,4.8,0.,4.8,0.,4.8,0.,4.8
1979-08-02 09:13:38.730 ,3,1,0.,4.8,0.,4.8,0.,4.8,0.,4.8
1979-08-02 09:13:43.530 ,3,1,1.,4.8,0.,4.8,0.,4.8,0.,4.8
1979-08-02 09:13:48.330 ,3,1,0.,4.8,0.,4.8,1.,4.8,0.,4.8
1979-08-02 09:13:53.130 ,3,1,4.,4.8,0.,4.8,0.,4.8,0.,4.8
1979-08-02 09:13:57.920 ,0,1,1.,4.8,0.,4.8,0.,4.8,0.,4.8
1979-08-02 09:14:02.730 ,0,1,0.,4.8,0.,4.8,0.,4.8,0.,4.8
1979-08-02 09:14:07.530 ,0,1,0.,4.8,0.,4.8,0.,4.8,0.,4.8
1979-08-02 09:14:12.330 ,0,1,0.,4.8,0.,4.8,0.,4.8,0.,4.8
1979-08-02 09:14:17.130 ,0,1,0.,4.8,0.,4.8,0.,4.8,0.,4.8
1979-08-02 09:14:21.920 ,4,1,5.,4.8,0.,4.8,0.,4.8,0.,4.8
1979-08-02 09:14:26.730 ,4,1,4.,4.8,0.,4.8,0.,4.8,0.,4.8
1979-08-02 09:14:31.530 ,4,1,2.,4.8,0.,4.8,0.,4.8,0.,4.8
1979-08-02 09:14:36.330 ,4,1,0.,4.8,0.,4.8,0.,4.8,0.,4.8
1979-08-02 09:14:41.130 ,4,1,1.,4.8,0.,4.8,0.,4.8,0.,4.8
1979-08-02 09:14:45.920 ,7,1,0.,4.8,0.,4.8,0.,4.8,0.,4.8
1979-08-02 09:14:50.730 ,7,1,0.,4.8,0.,4.8,0.,4.8,0.,4.8
1979-08-02 09:14:55.530 ,7,1,1.,4.8,0.,4.8,1.,4.8,0.,4.8
1979-08-02 09:15:00.330 ,7,1,0.,4.8,0.,4.8,0.,4.8,0.,4.8
1979-08-02 09:15:05.130 ,7,1,0.,4.8,0.,4.8,0.,4.8,0.,4.8
1979-08-02 09:15:09.920 ,3,1,1.,4.8,0.,4.8,0.,4.8,0.,4.8
1979-08-02 09:15:14.730 ,3,1,0.,4.8,0.,4.8,0.,4.8,0.,4.8
1979-08-02 09:15:19.530 ,3,1,0.,4.8,0.,4.8,1.,4.8,0.,4.8
1979-08-02 09:15:24.330 ,3,1,1.,4.8,0.,4.8,1.,4.8,0.,4.8
1979-08-02 09:15:29.130 ,3,1,2.,4.8,0.,4.8,0.,4.8,0.,4.8
1979-08-02 09:15:33.920 ,0,1,0.,4.8,0.,4.8,0.,4.8,0.,4.8
1979-08-02 09:15:38.730 ,0,1,2.,4.8,0.,4.8,0.,4.8,0.,4.8
1979-08-02 09:15:43.530 ,0,1,0.,4.8,0.,4.8,0.,4.8,0.,4.8
1979-08-02 09:15:48.330 ,0,1,0.,4.8,0.,4.8,0.,4.8,0.,4.8
1979-08-02 09:15:53.130 ,0,1,0.,4.8,0.,4.8,0.,4.8,0.,4.8
1979-08-02 09:15:57.920 ,4,1,0.,4.8,0.,4.8,0.,4.8,0.,4.8
1979-08-02 09:16:02.730 ,4,1,1.,4.8,0.,4.8,0.,4.8,0.,4.8
1979-08-02 09:16:07.530 ,4,1,2.,4.8,0.,4.8,0.,4.8,0.,4.8
1979-08-02 09:16:12.330 ,4,1,1.,4.8,0.,4.8,0.,4.8,0.,4.8
1979-08-02 09:16:17.130 ,4,1,0.,4.8,0.,4.8,0.,4.8,0.,4.8
1979-08-02 09:16:21.920 ,7,1,0.,4.8,0.,4.8,0.,4.8,0.,4.8
1979-08-02 09:16:26.730 ,7,1,1.,4.8,0.,4.8,0.,4.8,0.,4.8
1979-08-02 09:16:31.530 ,7,1,0.,4.8,0.,4.8,0.,4.8,0.,4.8
1979-08-02 09:16:36.330 ,7,1,1.,4.8,0.,4.8,0.,4.8,0.,4.8
1979-08-02 09:16:41.130 ,7,1,0.,4.8,0.,4.8,0.,4.8,0.,4.8
1979-08-02 09:16:45.920 ,3,1,0.,4.8,0.,4.8,0.,4.8,0.,4.8
1979-08-02 09:16:50.730 ,3,1,0.,4.8,0.,4.8,0.,4.8,0.,4.8
1979-08-02 09:16:55.530 ,3,1,0.,4.8,0.,4.8,0.,4.8,0.,4.8
1979-08-02 09:17:00.330 ,3,1,2.,4.8,0.,4.8,0.,4.8,0.,4.8
1979-08-02 09:17:05.130 ,3,1,1.,4.8,0.,4.8,0.,4.8,0.,4.8
1979-08-02 09:17:09.920 ,0,1,0.,4.8,0.,4.8,0.,4.8,0.,4.8
1979-08-02 09:17:14.720 ,0,1,2.,4.8,0.,4.8,0.,4.8,0.,4.8
1979-08-02 09:17:19.520 ,0,1,0.,4.8,0.,4.8,0.,4.8,0.,4.8
1979-08-02 09:17:24.320 ,0,1,0.,4.8,0.,4.8,0.,4.8,0.,4.8
1979-08-02 09:17:29.130 ,0,1,2.,4.8,0.,4.8,1.,4.8,0.,4.8
1979-08-02 09:17:33.920 ,0,0,0.,4.8,0.,4.8,1.,4.8,0.,4.8
1979-08-02 09:17:38.720 ,0,0,2.,4.8,0.,4.8,0.,4.8,0.,4.8
1979-08-02 09:17:43.520 ,0,0,0.,4.8,0.,4.8,0.,4.8,0.,4.8
1979-08-02 09:17:48.320 ,0,0,0.,4.8,0.,4.8,0.,4.8,0.,4.8
1979-08-02 09:17:53.120 ,0,0,1.,4.8,0.,4.8,0.,4.8,0.,4.8
1979-08-02 09:17:57.920 ,0,0,0.,4.8,0.,4.8,0.,4.8,0.,4.8
1979-08-02 09:18:02.720 ,0,0,1.,4.8,0.,4.8,0.,4.8,0.,4.8
1979-08-02 09:18:07.520 ,0,0,0.,4.8,0.,4.8,0.,4.8,0.,4.8
1979-08-02 09:18:12.320 ,0,0,0.,4.8,0.,4.8,0.,4.8,0.,4.8
1979-08-02 09:18:17.120 ,0,0,0.,4.8,0.,4.8,0.,4.8,0.,4.8
1979-08-02 09:18:21.920 ,5,0,1.,4.8,0.,4.8,1.,4.8,0.,4.8
1979-08-02 09:18:26.720 ,5,0,0.,4.8,0.,4.8,0.,4.8,0.,4.8
1979-08-02 09:18:31.520 ,5,0,0.,4.8,0.,4.8,0.,4.8,0.,4.8
1979-08-02 09:18:36.320 ,5,0,1.,4.8,0.,4.8,0.,4.8,0.,4.8
1979-08-02 09:18:41.120 ,5,0,2.,4.8,0.,4.8,0.,4.8,0.,4.8
1979-08-02 09:18:45.920 ,5,0,0.,4.8,0.,4.8,0.,4.8,0.,4.8
1979-08-02 09:18:50.720 ,5,0,0.,4.8,0.,4.8,2.,4.8,0.,4.8
1979-08-02 09:18:55.520 ,5,0,0.,4.8,0.,4.8,0.,4.8,0.,4.8
1979-08-02 09:19:00.320 ,5,0,0.,4.8,0.,4.8,0.,4.8,0.,4.8
1979-08-02 09:19:05.120 ,5,0,0.,4.8,0.,4.8,0.,4.8,0.,4.8
1979-08-02 09:19:09.920 ,4,0,0.,4.8,0.,4.8,0.,4.8,0.,4.8
1979-08-02 09:19:14.720 ,4,0,2.,4.8,0.,4.8,0.,4.8,0.,4.8
1979-08-02 09:19:19.520 ,4,0,1.,4.8,0.,4.8,0.,4.8,0.,4.8
1979-08-02 09:19:24.320 ,4,0,2.,4.8,0.,4.8,0.,4.8,0.,4.8
1979-08-02 09:19:29.120 ,4,0,1.,4.8,0.,4.8,0.,4.8,0.,4.8
1979-08-02 09:19:33.920 ,4,0,0.,4.8,0.,4.8,0.,4.8,0.,4.8
1979-08-02 09:19:38.720 ,4,0,0.,4.8,0.,4.8,0.,4.8,0.,4.8
1979-08-02 09:19:43.520 ,4,0,0.,4.8,0.,4.8,0.,4.8,0.,4.8
1979-08-02 09:19:48.320 ,4,0,1.,4.8,1.,4.8,0.,4.8,0.,4.8
1979-08-02 09:19:53.120 ,4,0,1.,4.8,0.,4.8,0.,4.8,0.,4.8
1979-08-02 09:19:57.920 ,3,0,0.,4.8,0.,4.8,0.,4.8,0.,4.8
1979-08-02 09:20:02.720 ,3,0,1.,4.8,0.,4.8,0.,4.8,0.,4.8
1979-08-02 09:20:07.520 ,3,0,2.,4.8,0.,4.8,0.,4.8,0.,4.8
1979-08-02 09:20:12.320 ,3,0,0.,4.8,0.,4.8,0.,4.8,0.,4.8
1979-08-02 09:20:17.120 ,3,0,1.,4.8,0.,4.8,0.,4.8,0.,4.8
1979-08-02 09:20:21.920 ,3,0,1.,4.8,0.,4.8,0.,4.8,0.,4.8
1979-08-02 09:20:26.720 ,3,0,2.,4.8,0.,4.8,0.,4.8,0.,4.8
1979-08-02 09:20:31.520 ,3,0,1.,4.8,0.,4.8,1.,4.8,0.,4.8
1979-08-02 09:20:36.320 ,3,0,0.,4.8,0.,4.8,0.,4.8,0.,4.8
1979-08-02 09:20:41.120 ,3,0,1.,4.8,0.,4.8,0.,4.8,0.,4.8
1979-08-02 09:20:45.920 ,2,0,1.,4.8,0.,4.8,0.,4.8,0.,4.8
1979-08-02 09:20:50.720 ,2,0,2.,4.8,0.,4.8,0.,4.8,0.,4.8
1979-08-02 09:20:55.520 ,2,0,0.,4.8,0.,4.8,0.,4.8,0.,4.8
1979-08-02 09:21:00.320 ,2,0,0.,4.8,0.,4.8,0.,4.8,0.,4.8
1979-08-02 09:21:05.120 ,2,0,0.,4.8,0.,4.8,0.,4.8,0.,4.8
1979-08-02 09:21:09.920 ,2,0,0.,4.8,0.,4.8,0.,4.8,0.,4.8
1979-08-02 09:21:14.720 ,2,0,2.,4.8,0.,4.8,0.,4.8,0.,4.8
1979-08-02 09:21:19.520 ,2,0,2.,4.8,0.,4.8,0.,4.8,0.,4.8
1979-08-02 09:21:24.320 ,2,0,0.,4.8,0.,4.8,0.,4.8,0.,4.8
1979-08-02 09:21:29.120 ,2,0,0.,4.8,0.,4.8,0.,4.8,0.,4.8
1979-08-02 09:21:33.920 ,1,0,0.,4.8,0.,4.8,0.,4.8,0.,4.8
1979-08-02 09:21:38.720 ,1,0,1.,4.8,1.,4.8,0.,4.8,0.,4.8
1979-08-02 09:21:43.520 ,1,0,2.,4.8,0.,4.8,0.,4.8,0.,4.8
1979-08-02 09:21:48.320 ,1,0,1.,4.8,0.,4.8,1.,4.8,0.,4.8
1979-08-02 09:21:53.120 ,1,0,1.,4.8,0.,4.8,0.,4.8,0.,4.8
1979-08-02 09:21:57.920 ,1,0,0.,4.8,0.,4.8,0.,4.8,0.,4.8
1979-08-02 09:22:02.720 ,1,0,2.,4.8,0.,4.8,0.,4.8,0.,4.8
1979-08-02 09:22:07.520 ,1,0,0.,4.8,0.,4.8,0.,4.8,0.,4.8
1979-08-02 09:22:12.320 ,1,0,4.,4.8,0.,4.8,0.,4.8,0.,4.8
1979-08-02 09:22:17.120 ,1,0,0.,4.8,0.,4.8,0.,4.8,0.,4.8
1979-08-02 09:22:21.920 ,0,0,0.,4.8,0.,4.8,1.,4.8,0.,4.8
1979-08-02 09:22:26.720 ,0,0,1.,4.8,0.,4.8,0.,4.8,0.,4.8
1979-08-02 09:22:31.520 ,0,0,1.,4.8,0.,4.8,0.,4.8,0.,4.8
1979-08-02 09:22:36.320 ,0,0,0.,4.8,0.,4.8,0.,4.8,0.,4.8
1979-08-02 09:22:41.120 ,0,0,1.,4.8,0.,4.8,0.,4.8,0.,4.8
1979-08-02 09:22:45.920 ,0,0,3.,4.8,0.,4.8,0.,4.8,0.,4.8
1979-08-02 09:22:50.720 ,0,0,0.,4.8,0.,4.8,0.,4.8,0.,4.8
1979-08-02 09:22:55.520 ,0,0,1.,4.8,1.,4.8,0.,4.8,0.,4.8
1979-08-02 09:23:00.320 ,0,0,0.,4.8,0.,4.8,0.,4.8,0.,4.8
1979-08-02 09:23:05.120 ,0,0,1.,4.8,0.,4.8,0.,4.8,0.,4.8
1979-08-02 09:23:09.920 ,0,0,2.,4.8,0.,4.8,0.,4.8,0.,4.8
1979-08-02 09:23:14.720 ,0,0,2.,4.8,0.,4.8,0.,4.8,0.,4.8
1979-08-02 09:23:19.520 ,0,0,2.,4.8,0.,4.8,0.,4.8,0.,4.8
1979-08-02 09:23:24.320 ,0,0,1.,4.8,0.,4.8,0.,4.8,0.,4.8
1979-08-02 09:23:29.120 ,0,0,3.,4.8,0.,4.8,0.,4.8,0.,4.8
1979-08-02 09:23:33.920 ,0,0,1.,4.8,0.,4.8,0.,4.8,0.,4.8
1979-08-02 09:23:38.720 ,0,0,1.,4.8,0.,4.8,0.,4.8,0.,4.8
1979-08-02 09:23:43.520 ,0,0,3.,4.8,0.,4.8,0.,4.8,0.,4.8
1979-08-02 09:23:48.320 ,0,0,1.,4.8,0.,4.8,0.,4.8,0.,4.8
1979-08-02 09:23:53.120 ,0,0,1.,4.8,0.,4.8,0.,4.8,0.,4.8
1979-08-02 09:23:57.920 ,1,0,1.,4.8,0.,4.8,1.,4.8,0.,4.8
1979-08-02 09:24:02.720 ,1,0,1.,4.8,0.,4.8,0.,4.8,0.,4.8
1979-08-02 09:24:07.520 ,1,0,0.,4.8,0.,4.8,0.,4.8,0.,4.8
1979-08-02 09:24:12.320 ,1,0,0.,4.8,0.,4.8,0.,4.8,0.,4.8
1979-08-02 09:24:17.120 ,1,0,0.,4.8,0.,4.8,0.,4.8,0.,4.8
1979-08-02 09:24:21.920 ,1,0,1.,4.8,0.,4.8,0.,4.8,0.,4.8
1979-08-02 09:24:26.720 ,1,0,1.,4.8,0.,4.8,0.,4.8,0.,4.8
1979-08-02 09:24:31.520 ,1,0,1.,4.8,0.,4.8,0.,4.8,0.,4.8
1979-08-02 09:24:36.320 ,1,0,0.,4.8,0.,4.8,0.,4.8,0.,4.8
1979-08-02 09:24:41.120 ,1,0,0.,4.8,0.,4.8,0.,4.8,0.,4.8
1979-08-02 09:24:45.920 ,2,0,1.,4.8,0.,4.8,0.,4.8,0.,4.8
1979-08-02 09:24:50.720 ,2,0,3.,4.8,0.,4.8,0.,4.8,0.,4.8
1979-08-02 09:24:55.520 ,2,0,0.,4.8,0.,4.8,1.,4.8,0.,4.8
1979-08-02 09:25:00.320 ,2,0,1.,4.8,0.,4.8,0.,4.8,0.,4.8
1979-08-02 09:25:05.120 ,2,0,0.,4.8,0.,4.8,0.,4.8,0.,4.8
1979-08-02 09:25:09.920 ,2,0,1.,4.8,0.,4.8,0.,4.8,0.,4.8
1979-08-02 09:25:14.720 ,2,0,1.,4.8,0.,4.8,0.,4.8,0.,4.8
1979-08-02 09:25:19.520 ,2,0,0.,4.8,0.,4.8,0.,4.8,0.,4.8
1979-08-02 09:25:24.320 ,2,0,3.,4.8,0.,4.8,0.,4.8,0.,4.8
1979-08-02 09:25:29.120 ,2,0,0.,4.8,1.,4.8,1.,4.8,0.,4.8
1979-08-02 09:25:33.920 ,3,0,0.,4.8,0.,4.8,0.,4.8,0.,4.8
1979-08-02 09:25:38.720 ,3,0,0.,4.8,0.,4.8,0.,4.8,0.,4.8
1979-08-02 09:25:43.520 ,3,0,2.,4.8,0.,4.8,0.,4.8,0.,4.8
1979-08-02 09:25:48.320 ,3,0,1.,4.8,0.,4.8,0.,4.8,0.,4.8
1979-08-02 09:25:53.120 ,3,0,0.,4.8,0.,4.8,2.,4.8,0.,4.8
1979-08-02 09:25:57.920 ,3,0,1.,4.8,0.,4.8,0.,4.8,0.,4.8
1979-08-02 09:26:02.720 ,3,0,2.,4.8,0.,4.8,1.,4.8,0.,4.8
1979-08-02 09:26:07.520 ,3,0,2.,4.8,1.,4.8,0.,4.8,0.,4.8
1979-08-02 09:26:12.320 ,3,0,0.,4.8,0.,4.8,0.,4.8,0.,4.8
1979-08-02 09:26:17.120 ,3,0,1.,4.8,0.,4.8,0.,4.8,0.,4.8
1979-08-02 09:26:21.920 ,4,0,0.,4.8,0.,4.8,0.,4.8,0.,4.8
1979-08-02 09:26:26.720 ,4,0,0.,4.8,0.,4.8,0.,4.8,0.,4.8
1979-08-02 09:26:31.520 ,4,0,2.,4.8,0.,4.8,0.,4.8,0.,4.8
1979-08-02 09:26:36.320 ,4,0,1.,4.8,0.,4.8,0.,4.8,0.,4.8
1979-08-02 09:26:41.120 ,4,0,0.,4.8,0.,4.8,0.,4.8,0.,4.8
1979-08-02 09:26:45.920 ,4,0,1.,4.8,0.,4.8,0.,4.8,0.,4.8
1979-08-02 09:26:50.720 ,4,0,1.,4.8,0.,4.8,0.,4.8,0.,4.8
1979-08-02 09:26:55.520 ,4,0,1.,4.8,1.,4.8,0.,4.8,0.,4.8
1979-08-02 09:27:00.320 ,4,0,2.,4.8,0.,4.8,0.,4.8,0.,4.8
1979-08-02 09:27:05.120 ,4,0,1.,4.8,0.,4.8,0.,4.8,0.,4.8
1979-08-02 09:27:09.920 ,5,0,1.,4.8,0.,4.8,0.,4.8,0.,4.8
1979-08-02 09:27:14.720 ,5,0,1.,4.8,0.,4.8,0.,4.8,0.,4.8
1979-08-02 09:27:19.520 ,5,0,0.,4.8,1.,4.8,0.,4.8,0.,4.8
1979-08-02 09:27:24.320 ,5,0,1.,4.8,1.,4.8,0.,4.8,0.,4.8
1979-08-02 09:27:29.120 ,5,0,0.,4.8,0.,4.8,0.,4.8,0.,4.8
1979-08-02 09:27:33.920 ,5,0,1.,4.8,0.,4.8,0.,4.8,0.,4.8
1979-08-02 09:27:38.720 ,5,0,0.,4.8,0.,4.8,1.,4.8,0.,4.8
1979-08-02 09:27:43.520 ,5,0,2.,4.8,0.,4.8,1.,4.8,0.,4.8
1979-08-02 09:27:48.320 ,5,0,2.,4.8,0.,4.8,0.,4.8,0.,4.8
1979-08-02 09:27:53.120 ,5,0,1.,4.8,0.,4.8,1.,4.8,0.,4.8
1979-08-02 09:27:57.920 ,6,0,3.,4.8,0.,4.8,0.,4.8,0.,4.8
1979-08-02 09:28:02.720 ,6,0,3.,4.8,0.,4.8,0.,4.8,0.,4.8
1979-08-02 09:28:07.520 ,6,0,0.,4.8,0.,4.8,0.,4.8,0.,4.8
1979-08-02 09:28:12.320 ,6,0,3.,4.8,0.,4.8,0.,4.8,0.,4.8
1979-08-02 09:28:17.120 ,6,0,1.,4.8,0.,4.8,0.,4.8,0.,4.8
1979-08-02 09:28:21.920 ,6,0,4.,4.8,0.,4.8,0.,4.8,0.,4.8
1979-08-02 09:28:26.720 ,6,0,2.,4.8,0.,4.8,0.,4.8,0.,4.8
1979-08-02 09:28:31.520 ,6,0,2.,4.8,0.,4.8,2.,4.8,0.,4.8
1979-08-02 09:28:36.320 ,6,0,2.,4.8,0.,4.8,0.,4.8,0.,4.8
1979-08-02 09:28:41.120 ,6,0,1.,4.8,1.,4.8,0.,4.8,0.,4.8
1979-08-02 09:28:45.920 ,7,0,2.,4.8,0.,4.8,0.,4.8,0.,4.8
1979-08-02 09:28:50.720 ,7,0,1.,4.8,0.,4.8,0.,4.8,0.,4.8
1979-08-02 09:28:55.520 ,7,0,1.,4.8,0.,4.8,0.,4.8,0.,4.8
1979-08-02 09:29:00.320 ,7,0,0.,4.8,0.,4.8,0.,4.8,0.,4.8
1979-08-02 09:29:05.120 ,7,0,1.,4.8,0.,4.8,0.,4.8,0.,4.8
1979-08-02 09:29:09.920 ,7,0,1.,4.8,0.,4.8,0.,4.8,0.,4.8
1979-08-02 09:29:14.720 ,7,0,1.,4.8,0.,4.8,0.,4.8,0.,4.8
1979-08-02 09:29:19.520 ,7,0,1.,4.8,0.,4.8,0.,4.8,0.,4.8
1979-08-02 09:29:24.320 ,7,0,1.,4.8,0.,4.8,0.,4.8,0.,4.8
1979-08-02 09:29:29.120 ,7,0,0.,4.8,0.,4.8,0.,4.8,0.,4.8
1979-08-02 09:29:33.920 ,7,0,1.,4.8,0.,4.8,0.,4.8,0.,4.8
1979-08-02 09:29:38.720 ,7,0,1.,4.8,0.,4.8,0.,4.8,0.,4.8
1979-08-02 09:29:43.520 ,7,0,0.,4.8,0.,4.8,0.,4.8,0.,4.8
1979-08-02 09:29:48.320 ,7,0,0.,4.8,0.,4.8,0.,4.8,0.,4.8
1979-08-02 09:29:53.120 ,7,0,0.,4.8,0.,4.8,0.,4.8,0.,4.8
1979-08-02 09:29:57.920 ,7,0,0.,4.8,0.,4.8,0.,4.8,0.,4.8
1979-08-02 09:30:02.720 ,7,0,1.,4.8,0.,4.8,0.,4.8,0.,4.8
1979-08-02 09:30:07.520 ,7,0,0.,4.8,0.,4.8,2.,4.8,0.,4.8
1979-08-02 09:30:12.320 ,7,0,1.,4.8,0.,4.8,0.,4.8,0.,4.8
1979-08-02 09:30:17.120 ,7,0,0.,4.8,0.,4.8,0.,4.8,0.,4.8
1979-08-02 09:30:21.920 ,6,0,0.,4.8,0.,4.8,0.,4.8,0.,4.8
1979-08-02 09:30:26.720 ,6,0,2.,4.8,0.,4.8,0.,4.8,0.,4.8
1979-08-02 09:30:31.520 ,6,0,3.,4.8,0.,4.8,1.,4.8,0.,4.8
1979-08-02 09:30:36.320 ,6,0,3.,4.8,1.,4.8,0.,4.8,0.,4.8
1979-08-02 09:30:41.120 ,6,0,2.,4.8,0.,4.8,0.,4.8,0.,4.8
1979-08-02 09:30:45.920 ,6,0,0.,4.8,0.,4.8,0.,4.8,0.,4.8
1979-08-02 09:30:50.720 ,6,0,0.,4.8,0.,4.8,0.,4.8,0.,4.8
1979-08-02 09:30:55.520 ,6,0,1.,4.8,0.,4.8,0.,4.8,0.,4.8
1979-08-02 09:31:00.320 ,6,0,3.,4.8,0.,4.8,0.,4.8,0.,4.8
1979-08-02 09:31:05.120 ,6,0,2.,4.8,0.,4.8,1.,4.8,0.,4.8
1979-08-02 09:31:09.920 ,0,0,0.,4.8,0.,4.8,0.,4.8,0.,4.8
1979-08-02 09:31:14.720 ,0,0,2.,4.8,0.,4.8,0.,4.8,0.,4.8
1979-08-02 09:31:19.520 ,0,0,4.,4.8,1.,4.8,1.,4.8,0.,4.8
1979-08-02 09:31:24.320 ,0,0,1.,4.8,0.,4.8,0.,4.8,0.,4.8
1979-08-02 09:31:29.120 ,0,0,,0,,0,,0,,0
1979-08-02 09:31:33.920 ,0,0,0.,4.8,0.,4.8,0.,4.8,0.,4.8
1979-08-02 09:31:38.720 ,0,0,1.,4.8,0.,4.8,0.,4.8,0.,4.8
1979-08-02 09:31:43.520 ,0,0,2.,4.8,0.,4.8,0.,4.8,0.,4.8
1979-08-02 09:31:48.320 ,0,0,2.,4.8,0.,4.8,0.,4.8,0.,4.8
1979-08-02 09:31:53.120 ,0,0,1.,4.8,0.,4.8,0.,4.8,0.,4.8
1979-08-02 09:31:57.920 ,4,0,0.,4.8,0.,4.8,0.,4.8,0.,4.8
1979-08-02 09:32:02.720 ,4,0,0.,4.8,0.,4.8,0.,4.8,0.,4.8
1979-08-02 09:32:07.520 ,4,0,2.,4.8,0.,4.8,1.,4.8,0.,4.8
1979-08-02 09:32:12.320 ,4,0,0.,4.8,0.,4.8,0.,4.8,0.,4.8
1979-08-02 09:32:17.120 ,4,0,1.,4.8,0.,4.8,1.,4.8,0.,4.8
1979-08-02 09:32:21.920 ,4,0,2.,4.8,2.,4.8,0.,4.8,0.,4.8
1979-08-02 09:32:26.720 ,4,0,0.,4.8,0.,4.8,0.,4.8,0.,4.8
1979-08-02 09:32:31.520 ,4,0,2.,4.8,0.,4.8,0.,4.8,0.,4.8
1979-08-02 09:32:36.320 ,4,0,0.,4.8,0.,4.8,0.,4.8,0.,4.8
1979-08-02 09:32:41.120 ,4,0,0.,4.8,0.,4.8,0.,4.8,0.,4.8
1979-08-02 09:32:45.920 ,3,0,0.,4.8,0.,4.8,0.,4.8,0.,4.8
1979-08-02 09:32:50.720 ,3,0,1.,4.8,0.,4.8,0.,4.8,0.,4.8
1979-08-02 09:32:55.520 ,3,0,2.,4.8,0.,4.8,1.,4.8,0.,4.8
1979-08-02 09:33:00.320 ,3,0,1.,4.8,0.,4.8,0.,4.8,0.,4.8
1979-08-02 09:33:05.120 ,3,0,1.,4.8,0.,4.8,0.,4.8,0.,4.8
1979-08-02 09:33:09.920 ,3,0,2.,4.8,0.,4.8,0.,4.8,0.,4.8
1979-08-02 09:33:14.720 ,3,0,0.,4.8,0.,4.8,0.,4.8,0.,4.8
1979-08-02 09:33:19.520 ,3,0,2.,4.8,0.,4.8,0.,4.8,0.,4.8
1979-08-02 09:33:24.320 ,3,0,0.,4.8,0.,4.8,1.,4.8,0.,4.8